START_TIME,STEP,MOV.,H8,t_acc.,H43,t_acc.,M25,t_acc.,H9,t_acc.
1979-07-13 18:00:29.820 ,0,1,0.,12.0,0.,12.0,0.,12.0,0.,12.0
1979-07-13 18:00:41.820 ,0,1,0.,12.0,0.,12.0,0.,12.0,0.,12.0
1979-07-13 18:00:53.820 ,4,1,0.,12.0,0.,12.0,0.,12.0,0.,12.0
1979-07-13 18:01:05.820 ,4,1,0.,12.0,0.,12.0,0.,12.0,0.,12.0
1979-07-13 18:01:17.820 ,7,1,1.,12.0,0.,12.0,0.,12.0,0.,12.0
1979-07-13 18:01:29.820 ,7,1,0.,12.0,0.,12.0,0.,12.0,0.,12.0
1979-07-13 18:01:41.820 ,3,1,0.,12.0,0.,12.0,0.,12.0,0.,12.0
1979-07-13 18:01:53.820 ,3,1,0.,12.0,0.,12.0,0.,12.0,0.,12.0
1979-07-13 18:02:05.820 ,0,1,0.,12.0,0.,12.0,0.,12.0,0.,12.0
1979-07-13 18:02:17.820 ,0,1,0.,12.0,0.,12.0,0.,12.0,0.,12.0
1979-07-13 18:02:29.820 ,4,1,0.,12.0,0.,12.0,0.,12.0,0.,12.0
1979-07-13 18:02:41.820 ,4,1,0.,12.0,0.,12.0,0.,12.0,0.,12.0
1979-07-13 18:02:53.820 ,7,1,0.,12.0,0.,12.0,0.,12.0,0.,12.0
1979-07-13 18:03:05.820 ,7,1,0.,12.0,0.,12.0,0.,12.0,0.,12.0
1979-07-13 18:03:17.820 ,3,1,0.,12.0,0.,12.0,0.,12.0,0.,12.0
1979-07-13 18:03:29.820 ,3,1,0.,12.0,0.,12.0,0.,12.0,0.,12.0
1979-07-13 18:03:41.820 ,0,1,0.,12.0,0.,12.0,0.,12.0,0.,12.0
1979-07-13 18:03:53.820 ,0,1,0.,12.0,0.,12.0,0.,12.0,0.,12.0
1979-07-13 18:04:05.820 ,4,1,0.,12.0,0.,12.0,0.,12.0,0.,12.0
1979-07-13 18:04:17.820 ,4,1,0.,12.0,0.,12.0,0.,12.0,0.,12.0
1979-07-13 18:04:29.820 ,7,1,0.,12.0,0.,12.0,0.,12.0,0.,12.0
1979-07-13 18:04:41.820 ,7,1,0.,12.0,0.,12.0,0.,12.0,0.,12.0
1979-07-13 18:04:53.820 ,3,1,0.,12.0,0.,12.0,0.,12.0,0.,12.0
1979-07-13 18:05:05.820 ,3,1,0.,12.0,0.,12.0,0.,12.0,0.,12.0
1979-07-13 18:05:17.820 ,0,1,0.,12.0,0.,12.0,0.,12.0,0.,12.0
1979-07-13 18:05:29.820 ,0,1,0.,12.0,0.,12.0,0.,12.0,0.,12.0
1979-07-13 18:05:41.820 ,0,0,0.,12.0,0.,12.0,0.,12.0,0.,12.0
1979-07-13 18:05:53.820 ,0,0,0.,12.0,0.,12.0,0.,12.0,0.,12.0
1979-07-13 18:06:05.820 ,0,0,0.,12.0,0.,12.0,0.,12.0,0.,12.0
1979-07-13 18:06:17.820 ,0,0,0.,12.0,0.,12.0,0.,12.0,0.,12.0
1979-07-13 18:06:29.820 ,5,0,0.,12.0,0.,12.0,0.,12.0,0.,12.0
1979-07-13 18:06:41.820 ,5,0,0.,12.0,0.,12.0,0.,12.0,0.,12.0
1979-07-13 18:06:53.820 ,5,0,0.,12.0,0.,12.0,0.,12.0,0.,12.0
1979-07-13 18:07:05.820 ,5,0,0.,12.0,0.,12.0,0.,12.0,0.,12.0
1979-07-13 18:07:17.820 ,4,0,0.,12.0,0.,12.0,0.,12.0,0.,12.0
1979-07-13 18:07:29.820 ,4,0,0.,12.0,0.,12.0,0.,12.0,0.,12.0
1979-07-13 18:07:41.820 ,4,0,0.,12.0,0.,12.0,0.,12.0,0.,12.0
1979-07-13 18:07:53.820 ,4,0,1.,12.0,0.,12.0,0.,12.0,0.,12.0
1979-07-13 18:08:05.820 ,3,0,0.,12.0,0.,12.0,0.,12.0,0.,12.0
1979-07-13 18:08:17.820 ,3,0,0.,12.0,0.,12.0,0.,12.0,0.,12.0
1979-07-13 18:08:29.820 ,3,0,0.,12.0,0.,12.0,0.,12.0,0.,12.0
1979-07-13 18:08:41.820 ,3,0,0.,12.0,0.,12.0,0.,12.0,0.,12.0
1979-07-13 18:08:53.820 ,2,0,1.,12.0,0.,12.0,0.,12.0,0.,12.0
1979-07-13 18:09:05.820 ,2,0,0.,12.0,0.,12.0,0.,12.0,0.,12.0
1979-07-13 18:09:17.820 ,2,0,0.,12.0,0.,12.0,0.,12.0,0.,12.0
1979-07-13 18:09:29.820 ,2,0,0.,12.0,0.,12.0,0.,12.0,0.,12.0
1979-07-13 18:09:41.820 ,1,0,0.,12.0,0.,12.0,0.,12.0,0.,12.0
1979-07-13 18:09:53.820 ,1,0,0.,12.0,0.,12.0,0.,12.0,0.,12.0
1979-07-13 18:10:05.820 ,1,0,0.,12.0,0.,12.0,0.,12.0,0.,12.0
1979-07-13 18:10:17.820 ,1,0,0.,12.0,0.,12.0,0.,12.0,0.,12.0
1979-07-13 18:10:29.820 ,0,0,0.,12.0,0.,12.0,0.,12.0,0.,12.0
1979-07-13 18:10:41.820 ,0,0,0.,12.0,0.,12.0,0.,12.0,0.,12.0
1979-07-13 18:10:53.820 ,0,0,0.,12.0,0.,12.0,0.,12.0,0.,12.0
1979-07-13 18:11:05.820 ,0,0,0.,12.0,0.,12.0,0.,12.0,0.,12.0
1979-07-13 18:11:17.820 ,0,0,0.,12.0,0.,12.0,0.,12.0,0.,12.0
1979-07-13 18:11:29.820 ,0,0,0.,12.0,0.,12.0,0.,12.0,0.,12.0
1979-07-13 18:11:41.820 ,0,0,0.,12.0,0.,12.0,0.,12.0,0.,12.0
1979-07-13 18:11:53.820 ,0,0,0.,12.0,0.,12.0,0.,12.0,0.,12.0
1979-07-13 18:12:05.820 ,1,0,0.,12.0,0.,12.0,0.,12.0,0.,12.0
1979-07-13 18:12:17.820 ,1,0,0.,12.0,0.,12.0,0.,12.0,0.,12.0
1979-07-13 18:12:29.820 ,1,0,0.,12.0,0.,12.0,0.,12.0,0.,12.0
1979-07-13 18:12:41.820 ,1,0,0.,12.0,0.,12.0,0.,12.0,0.,12.0
1979-07-13 18:12:53.820 ,2,0,0.,12.0,0.,12.0,0.,12.0,0.,12.0
1979-07-13 18:13:05.820 ,2,0,0.,12.0,0.,12.0,0.,12.0,0.,12.0
1979-07-13 18:13:17.820 ,2,0,0.,12.0,0.,12.0,0.,12.0,0.,12.0
1979-07-13 18:13:29.820 ,2,0,0.,12.0,0.,12.0,0.,12.0,0.,12.0
1979-07-13 18:13:41.820 ,3,0,0.,12.0,0.,12.0,0.,12.0,0.,12.0
1979-07-13 18:13:53.820 ,3,0,0.,12.0,0.,12.0,0.,12.0,0.,12.0
1979-07-13 18:14:05.820 ,3,0,0.,12.0,0.,12.0,0.,12.0,0.,12.0
1979-07-13 18:14:17.820 ,3,0,1.,12.0,0.,12.0,0.,12.0,0.,12.0
1979-07-13 18:14:29.820 ,4,0,0.,12.0,0.,12.0,0.,12.0,0.,12.0
1979-07-13 18:14:41.820 ,4,0,0.,12.0,0.,12.0,0.,12.0,0.,12.0
1979-07-13 18:14:53.820 ,4,0,0.,12.0,0.,12.0,0.,12.0,0.,12.0
1979-07-13 18:15:05.820 ,4,0,0.,12.0,0.,12.0,0.,12.0,0.,12.0
1979-07-13 18:15:17.820 ,5,0,0.,12.0,0.,12.0,0.,12.0,0.,12.0
1979-07-13 18:15:29.820 ,5,0,0.,12.0,0.,12.0,0.,12.0,0.,12.0
1979-07-13 18:15:41.820 ,5,0,0.,12.0,0.,12.0,0.,12.0,0.,12.0
1979-07-13 18:15:53.820 ,5,0,0.,12.0,0.,12.0,0.,12.0,0.,12.0
1979-07-13 18:16:05.820 ,6,0,0.,12.0,0.,12.0,0.,12.0,0.,12.0
1979-07-13 18:16:17.820 ,6,0,0.,12.0,0.,12.0,0.,12.0,0.,12.0
1979-07-13 18:16:29.820 ,6,0,0.,12.0,0.,12.0,0.,12.0,0.,12.0
1979-07-13 18:16:41.820 ,6,0,0.,12.0,0.,12.0,0.,12.0,0.,12.0
1979-07-13 18:16:53.820 ,7,0,0.,12.0,0.,12.0,0.,12.0,0.,12.0
1979-07-13 18:17:05.820 ,7,0,0.,12.0,0.,12.0,0.,12.0,0.,12.0
1979-07-13 18:17:17.820 ,7,0,0.,12.0,0.,12.0,0.,12.0,0.,12.0
1979-07-13 18:17:29.820 ,7,0,0.,12.0,0.,12.0,0.,12.0,0.,12.0
1979-07-13 18:17:41.820 ,7,0,0.,12.0,0.,12.0,0.,12.0,0.,12.0
1979-07-13 18:17:53.820 ,7,0,0.,12.0,0.,12.0,0.,12.0,0.,12.0
1979-07-13 18:18:05.820 ,7,0,0.,12.0,0.,12.0,0.,12.0,0.,12.0
1979-07-13 18:18:17.820 ,7,0,0.,12.0,0.,12.0,0.,12.0,0.,12.0
1979-07-13 18:18:29.820 ,6,0,0.,12.0,0.,12.0,0.,12.0,0.,12.0
1979-07-13 18:18:41.820 ,6,0,0.,12.0,0.,12.0,0.,12.0,0.,12.0
1979-07-13 18:18:53.820 ,6,0,0.,12.0,0.,12.0,0.,12.0,0.,12.0
1979-07-13 18:19:05.820 ,6,0,0.,12.0,0.,12.0,0.,12.0,0.,12.0
1979-07-13 18:19:17.820 ,5,0,0.,12.0,0.,12.0,0.,12.0,0.,12.0
1979-07-13 18:19:29.820 ,5,0,0.,12.0,0.,12.0,0.,12.0,0.,12.0
1979-07-13 18:19:41.820 ,5,0,0.,12.0,0.,12.0,0.,12.0,0.,12.0
1979-07-13 18:19:53.820 ,5,0,0.,12.0,0.,12.0,0.,12.0,0.,12.0
1979-07-13 18:20:05.820 ,4,0,0.,12.0,0.,12.0,0.,12.0,0.,12.0
1979-07-13 18:20:17.820 ,4,0,0.,12.0,0.,12.0,0.,12.0,0.,12.0
1979-07-13 18:20:29.820 ,4,0,0.,12.0,0.,12.0,0.,12.0,0.,12.0
1979-07-13 18:20:41.820 ,4,0,0.,12.0,0.,12.0,0.,12.0,0.,12.0
1979-07-13 18:20:53.820 ,3,0,0.,12.0,0.,12.0,0.,12.0,0.,12.0
1979-07-13 18:21:05.820 ,3,0,0.,12.0,0.,12.0,0.,12.0,0.,12.0
1979-07-13 18:21:17.820 ,3,0,0.,12.0,0.,12.0,0.,12.0,0.,12.0
1979-07-13 18:21:29.820 ,3,0,1.,12.0,0.,12.0,0.,12.0,0.,12.0
1979-07-13 18:21:41.820 ,2,0,0.,12.0,0.,12.0,0.,12.0,0.,12.0
1979-07-13 18:21:53.820 ,2,0,0.,12.0,0.,12.0,0.,12.0,0.,12.0
1979-07-13 18:22:05.820 ,2,0,0.,12.0,0.,12.0,0.,12.0,0.,12.0
1979-07-13 18:22:17.820 ,2,0,0.,12.0,0.,12.0,0.,12.0,0.,12.0
1979-07-13 18:23:17.820 ,0,0,0.,12.0,0.,12.0,0.,12.0,0.,12.0
1979-07-13 18:23:29.820 ,0,0,0.,12.0,0.,12.0,0.,12.0,0.,12.0
1979-07-13 18:23:41.820 ,0,0,0.,12.0,0.,12.0,0.,12.0,0.,12.0
1979-07-13 18:23:53.820 ,0,0,0.,12.0,0.,12.0,0.,12.0,0.,12.0
1979-07-13 18:24:05.820 ,0,0,0.,12.0,0.,12.0,0.,12.0,0.,12.0
1979-07-13 18:24:17.820 ,0,0,0.,12.0,0.,12.0,0.,12.0,0.,12.0
1979-07-13 18:24:29.820 ,0,0,0.,12.0,0.,12.0,0.,12.0,0.,12.0
1979-07-13 18:24:41.820 ,0,0,1.,12.0,0.,12.0,0.,12.0,0.,12.0
1979-07-13 18:24:53.820 ,1,0,0.,12.0,0.,12.0,0.,12.0,0.,12.0
1979-07-13 18:25:05.820 ,1,0,0.,12.0,0.,12.0,0.,12.0,0.,12.0
1979-07-13 18:25:17.820 ,1,0,0.,12.0,0.,12.0,0.,12.0,0.,12.0
1979-07-13 18:25:29.820 ,1,0,0.,12.0,0.,12.0,0.,12.0,0.,12.0
1979-07-13 18:25:41.820 ,2,0,0.,12.0,0.,12.0,0.,12.0,0.,12.0
1979-07-13 18:25:53.820 ,2,0,0.,12.0,0.,12.0,0.,12.0,0.,12.0
1979-07-13 18:26:05.820 ,2,0,0.,12.0,0.,12.0,0.,12.0,0.,12.0
1979-07-13 18:26:17.820 ,2,0,0.,12.0,0.,12.0,0.,12.0,0.,12.0
1979-07-13 18:26:29.820 ,3,0,0.,12.0,0.,12.0,0.,12.0,0.,12.0
1979-07-13 18:26:41.820 ,3,0,0.,12.0,0.,12.0,0.,12.0,0.,12.0
1979-07-13 18:26:53.820 ,3,0,0.,12.0,0.,12.0,0.,12.0,0.,12.0
1979-07-13 18:27:05.820 ,3,0,0.,12.0,0.,12.0,0.,12.0,0.,12.0
1979-07-13 18:27:17.820 ,4,0,0.,12.0,0.,12.0,0.,12.0,0.,12.0
1979-07-13 18:27:29.820 ,4,0,0.,12.0,0.,12.0,0.,12.0,0.,12.0
1979-07-13 18:27:41.820 ,4,0,0.,12.0,0.,12.0,0.,12.0,0.,12.0
1979-07-13 18:27:53.820 ,4,0,0.,12.0,0.,12.0,0.,12.0,0.,12.0
1979-07-13 18:28:05.820 ,5,0,0.,12.0,0.,12.0,0.,12.0,0.,12.0
1979-07-13 18:28:17.820 ,5,0,0.,12.0,0.,12.0,0.,12.0,0.,12.0
1979-07-13 18:28:29.820 ,5,0,0.,12.0,0.,12.0,0.,12.0,0.,12.0
1979-07-13 18:28:41.820 ,5,0,0.,12.0,0.,12.0,0.,12.0,0.,12.0
1979-07-13 18:28:53.820 ,6,0,0.,12.0,0.,12.0,0.,12.0,0.,12.0
1979-07-13 18:29:05.820 ,6,0,0.,12.0,0.,12.0,0.,12.0,0.,12.0
1979-07-13 18:29:17.820 ,6,0,0.,12.0,0.,12.0,0.,12.0,0.,12.0
1979-07-13 18:29:29.820 ,6,0,0.,12.0,0.,12.0,0.,12.0,0.,12.0
1979-07-13 18:29:41.820 ,7,0,0.,12.0,0.,12.0,0.,12.0,0.,12.0
1979-07-13 18:29:53.820 ,7,0,0.,12.0,0.,12.0,0.,12.0,0.,12.0
1979-07-13 18:30:05.820 ,7,0,0.,12.0,0.,12.0,0.,12.0,0.,12.0
1979-07-13 18:30:17.820 ,7,0,0.,12.0,0.,12.0,0.,12.0,0.,12.0
1979-07-13 18:30:29.820 ,7,0,0.,12.0,0.,12.0,0.,12.0,0.,12.0
1979-07-13 18:30:41.820 ,7,0,0.,12.0,0.,12.0,0.,12.0,0.,12.0
1979-07-13 18:30:53.820 ,7,0,0.,12.0,0.,12.0,0.,12.0,0.,12.0
1979-07-13 18:31:05.820 ,7,0,0.,12.0,0.,12.0,0.,12.0,0.,12.0
1979-07-13 18:31:17.820 ,6,0,0.,12.0,0.,12.0,0.,12.0,0.,12.0
1979-07-13 18:31:29.820 ,6,0,0.,12.0,0.,12.0,0.,12.0,0.,12.0
1979-07-13 18:31:41.820 ,6,0,0.,12.0,0.,12.0,0.,12.0,0.,12.0
1979-07-13 18:31:53.820 ,6,0,0.,12.0,0.,12.0,0.,12.0,0.,12.0
1979-07-13 18:32:05.820 ,5,0,0.,12.0,0.,12.0,0.,12.0,0.,12.0
1979-07-13 18:32:17.820 ,5,0,0.,12.0,0.,12.0,0.,12.0,0.,12.0
1979-07-13 18:32:29.820 ,5,0,0.,12.0,0.,12.0,0.,12.0,0.,12.0
1979-07-13 18:32:41.820 ,5,0,0.,12.0,0.,12.0,0.,12.0,0.,12.0
1979-07-13 18:32:53.820 ,4,0,0.,12.0,0.,12.0,0.,12.0,0.,12.0
1979-07-13 18:33:05.820 ,4,0,0.,12.0,0.,12.0,0.,12.0,0.,12.0
1979-07-13 18:33:17.820 ,4,0,0.,12.0,0.,12.0,0.,12.0,0.,12.0
1979-07-13 18:33:29.820 ,4,0,0.,12.0,0.,12.0,0.,12.0,0.,12.0
1979-07-13 18:33:41.820 ,3,0,0.,12.0,0.,12.0,0.,12.0,0.,12.0
1979-07-13 18:33:53.820 ,3,0,0.,12.0,0.,12.0,0.,12.0,0.,12.0
1979-07-13 18:34:05.820 ,3,0,0.,12.0,0.,12.0,0.,12.0,0.,12.0
1979-07-13 18:34:17.820 ,3,0,0.,12.0,0.,12.0,0.,12.0,0.,12.0
1979-07-13 18:34:29.820 ,2,0,0.,12.0,0.,12.0,0.,12.0,0.,12.0
1979-07-13 18:34:41.820 ,2,0,0.,12.0,0.,12.0,0.,12.0,0.,12.0
1979-07-13 18:34:53.820 ,2,0,0.,12.0,0.,12.0,0.,12.0,0.,12.0
1979-07-13 18:35:05.820 ,2,0,0.,12.0,0.,12.0,0.,12.0,0.,12.0
1979-07-13 18:35:17.820 ,1,0,0.,12.0,0.,12.0,0.,12.0,0.,12.0
1979-07-13 18:35:29.820 ,1,0,0.,12.0,0.,12.0,0.,12.0,0.,12.0
1979-07-13 18:35:41.820 ,1,0,0.,12.0,0.,12.0,0.,12.0,0.,12.0
1979-07-13 18:35:53.820 ,1,0,0.,12.0,0.,12.0,0.,12.0,0.,12.0
1979-07-13 18:36:05.820 ,0,0,0.,12.0,0.,12.0,0.,12.0,0.,12.0
1979-07-13 18:36:17.820 ,0,0,0.,12.0,0.,12.0,0.,12.0,0.,12.0
1979-07-13 18:36:29.820 ,0,0,0.,12.0,0.,12.0,0.,12.0,0.,12.0
1979-07-13 18:36:41.820 ,0,0,0.,12.0,0.,12.0,0.,12.0,0.,12.0
1979-07-13 18:36:53.820 ,0,0,0.,12.0,0.,12.0,0.,12.0,0.,12.0
1979-07-13 18:37:05.820 ,0,0,0.,12.0,0.,12.0,0.,12.0,0.,12.0
1979-07-13 18:37:17.820 ,0,0,0.,12.0,0.,12.0,0.,12.0,0.,12.0
1979-07-13 18:37:29.820 ,0,0,0.,12.0,0.,12.0,0.,12.0,0.,12.0
1979-07-13 18:37:41.820 ,1,0,0.,12.0,0.,12.0,0.,12.0,0.,12.0
1979-07-13 18:37:53.820 ,1,0,0.,12.0,0.,12.0,0.,12.0,0.,12.0
1979-07-13 18:38:05.820 ,1,0,0.,12.0,0.,12.0,0.,12.0,0.,12.0
1979-07-13 18:38:17.820 ,1,0,0.,12.0,0.,12.0,0.,12.0,0.,12.0
1979-07-13 18:38:29.810 ,2,0,0.,12.0,0.,12.0,0.,12.0,0.,12.0
1979-07-13 18:38:41.810 ,2,0,0.,12.0,0.,12.0,0.,12.0,0.,12.0
1979-07-13 18:38:53.810 ,2,0,0.,12.0,0.,12.0,0.,12.0,0.,12.0
1979-07-13 18:39:05.810 ,2,0,0.,12.0,0.,12.0,0.,12.0,0.,12.0
1979-07-13 18:39:17.810 ,3,0,0.,12.0,0.,12.0,0.,12.0,0.,12.0
1979-07-13 18:39:29.810 ,3,0,0.,12.0,0.,12.0,0.,12.0,0.,12.0
1979-07-13 18:39:41.810 ,3,0,0.,12.0,0.,12.0,0.,12.0,0.,12.0
1979-07-13 18:39:53.810 ,3,0,0.,12.0,0.,12.0,0.,12.0,0.,12.0
1979-07-13 18:40:05.810 ,4,0,0.,12.0,0.,12.0,0.,12.0,0.,12.0
1979-07-13 18:40:17.810 ,4,0,0.,12.0,0.,12.0,0.,12.0,0.,12.0
1979-07-13 18:40:29.810 ,4,0,0.,12.0,0.,12.0,0.,12.0,0.,12.0
1979-07-13 18:40:41.810 ,4,0,0.,12.0,0.,12.0,0.,12.0,0.,12.0
1979-07-13 18:40:53.810 ,5,0,0.,12.0,0.,12.0,0.,12.0,0.,12.0
1979-07-13 18:41:05.810 ,5,0,0.,12.0,0.,12.0,0.,12.0,0.,12.0
1979-07-13 18:41:17.810 ,5,0,0.,12.0,0.,12.0,0.,12.0,0.,12.0
1979-07-13 18:41:29.810 ,5,0,0.,12.0,0.,12.0,0.,12.0,0.,12.0
1979-07-13 18:41:41.810 ,6,0,0.,12.0,0.,12.0,0.,12.0,0.,12.0
1979-07-13 18:41:53.810 ,6,0,0.,12.0,0.,12.0,0.,12.0,0.,12.0
1979-07-13 18:42:05.810 ,6,0,0.,12.0,0.,12.0,0.,12.0,0.,12.0
1979-07-13 18:42:17.810 ,6,0,0.,12.0,0.,12.0,0.,12.0,0.,12.0
1979-07-13 18:42:29.810 ,7,0,0.,12.0,0.,12.0,0.,12.0,0.,12.0
1979-07-13 18:42:41.810 ,7,0,0.,12.0,0.,12.0,0.,12.0,0.,12.0
1979-07-13 18:42:53.810 ,7,0,0.,12.0,0.,12.0,0.,12.0,0.,12.0
1979-07-13 18:43:05.810 ,7,0,0.,12.0,0.,12.0,0.,12.0,0.,12.0
1979-07-13 18:43:17.810 ,3,1,0.,12.0,0.,12.0,0.,12.0,0.,12.0
1979-07-13 18:43:29.810 ,3,1,0.,12.0,0.,12.0,0.,12.0,0.,12.0
1979-07-13 18:43:41.810 ,0,1,0.,12.0,0.,12.0,0.,12.0,0.,12.0
1979-07-13 18:43:53.810 ,0,1,0.,12.0,0.,12.0,0.,12.0,0.,12.0
1979-07-13 18:44:05.810 ,4,1,0.,12.0,0.,12.0,0.,12.0,0.,12.0
1979-07-13 18:44:17.810 ,4,1,0.,12.0,0.,12.0,0.,12.0,0.,12.0
1979-07-13 18:44:29.810 ,7,1,0.,12.0,0.,12.0,0.,12.0,0.,12.0
1979-07-13 18:44:41.810 ,7,1,0.,12.0,0.,12.0,0.,12.0,0.,12.0
1979-07-13 18:44:53.810 ,3,1,0.,12.0,0.,12.0,0.,12.0,0.,12.0
1979-07-13 18:45:05.810 ,3,1,0.,12.0,0.,12.0,0.,12.0,0.,12.0
1979-07-13 18:45:17.810 ,0,1,0.,12.0,0.,12.0,0.,12.0,0.,12.0
1979-07-13 18:45:29.810 ,0,1,0.,12.0,0.,12.0,0.,12.0,0.,12.0
1979-07-13 18:45:41.810 ,4,1,0.,12.0,0.,12.0,0.,12.0,0.,12.0
1979-07-13 18:45:53.810 ,4,1,0.,12.0,0.,12.0,0.,12.0,0.,12.0
1979-07-13 18:46:05.810 ,7,1,0.,12.0,0.,12.0,0.,12.0,0.,12.0
1979-07-13 18:46:17.810 ,7,1,0.,12.0,0.,12.0,0.,12.0,0.,12.0
1979-07-13 18:46:29.810 ,3,1,0.,12.0,0.,12.0,0.,12.0,0.,12.0
1979-07-13 18:46:41.810 ,3,1,0.,12.0,0.,12.0,0.,12.0,0.,12.0
1979-07-13 18:46:53.810 ,0,1,0.,12.0,0.,12.0,0.,12.0,0.,12.0
1979-07-13 18:47:05.810 ,0,1,0.,12.0,0.,12.0,0.,12.0,0.,12.0
1979-07-13 18:47:17.810 ,4,1,0.,12.0,0.,12.0,0.,12.0,0.,12.0
1979-07-13 18:47:29.810 ,4,1,0.,12.0,0.,12.0,0.,12.0,0.,12.0
1979-07-13 18:47:41.810 ,7,1,0.,12.0,0.,12.0,0.,12.0,0.,12.0
1979-07-13 18:47:53.810 ,7,1,0.,12.0,0.,12.0,0.,12.0,0.,12.0
1979-07-13 18:48:05.810 ,3,1,0.,12.0,0.,12.0,0.,12.0,0.,12.0
1979-07-13 18:48:17.810 ,3,1,0.,12.0,0.,12.0,0.,12.0,0.,12.0
1979-07-13 18:48:29.810 ,0,1,0.,12.0,0.,12.0,0.,12.0,0.,12.0
1979-07-13 18:48:41.810 ,0,1,0.,12.0,0.,12.0,0.,12.0,0.,12.0
1979-07-13 18:48:53.810 ,4,1,0.,12.0,0.,12.0,0.,12.0,0.,12.0
1979-07-13 18:49:05.810 ,4,1,0.,12.0,0.,12.0,0.,12.0,0.,12.0
1979-07-13 18:49:17.810 ,7,1,0.,12.0,0.,12.0,0.,12.0,0.,12.0
1979-07-13 18:49:29.810 ,7,1,0.,12.0,0.,12.0,0.,12.0,0.,12.0
1979-07-13 18:49:41.810 ,0,0,,0,,0,,0,,0
1979-07-13 18:49:53.810 ,0,0,,0,,0,,0,,0
1979-07-13 18:50:05.810 ,0,0,,0,,0,,0,,0
1979-07-13 18:50:17.810 ,0,0,,0,,0,,0,,0
1979-07-13 18:50:05.810 ,0,1,0.,12.0,0.,12.0,0.,12.0,0.,12.0
1979-07-13 18:50:17.810 ,0,1,0.,12.0,0.,12.0,0.,12.0,0.,12.0
1979-07-13 18:50:29.810 ,4,1,0.,12.0,0.,12.0,0.,12.0,0.,12.0
1979-07-13 18:50:41.810 ,4,1,0.,12.0,0.,12.0,0.,12.0,0.,12.0
1979-07-13 18:50:53.810 ,7,1,0.,12.0,0.,12.0,0.,12.0,0.,12.0
1979-07-13 18:51:05.810 ,7,1,0.,12.0,0.,12.0,0.,12.0,0.,12.0
1979-07-13 18:51:17.810 ,3,1,0.,12.0,0.,12.0,0.,12.0,0.,12.0
1979-07-13 18:51:29.810 ,3,1,0.,12.0,0.,12.0,0.,12.0,0.,12.0
1979-07-13 18:51:41.810 ,0,1,0.,12.0,0.,12.0,0.,12.0,0.,12.0
1979-07-13 18:51:53.810 ,0,1,0.,12.0,0.,12.0,0.,12.0,0.,12.0
1979-07-13 18:52:05.810 ,4,1,0.,12.0,0.,12.0,0.,12.0,0.,12.0
1979-07-13 18:52:17.810 ,4,1,0.,12.0,0.,12.0,0.,12.0,1.,12.0
1979-07-13 18:52:29.810 ,7,1,0.,12.0,0.,12.0,0.,12.0,0.,12.0
1979-07-13 18:52:41.810 ,7,1,0.,12.0,0.,12.0,0.,12.0,0.,12.0
1979-07-13 18:52:53.810 ,3,1,0.,12.0,0.,12.0,0.,12.0,0.,12.0
1979-07-13 18:53:05.810 ,3,1,0.,12.0,0.,12.0,0.,12.0,0.,12.0
1979-07-13 18:53:17.810 ,0,1,0.,12.0,0.,12.0,0.,12.0,0.,12.0
1979-07-13 18:53:29.810 ,0,1,0.,12.0,0.,12.0,0.,12.0,0.,12.0
1979-07-13 18:53:41.810 ,0,0,0.,12.0,0.,12.0,0.,12.0,0.,12.0
1979-07-13 18:53:53.810 ,0,0,0.,12.0,0.,12.0,0.,12.0,0.,12.0
1979-07-13 18:54:05.810 ,0,0,0.,12.0,0.,12.0,0.,12.0,0.,12.0
1979-07-13 18:54:17.810 ,0,0,0.,12.0,0.,12.0,0.,12.0,0.,12.0
1979-07-13 18:54:29.810 ,5,0,0.,12.0,0.,12.0,0.,12.0,0.,12.0
1979-07-13 18:54:41.810 ,5,0,0.,12.0,0.,12.0,0.,12.0,0.,12.0
1979-07-13 18:54:53.810 ,5,0,0.,12.0,0.,12.0,0.,12.0,0.,12.0
1979-07-13 18:55:05.810 ,5,0,0.,12.0,0.,12.0,0.,12.0,0.,12.0
1979-07-13 18:55:17.810 ,4,0,0.,12.0,0.,12.0,0.,12.0,0.,12.0
1979-07-13 18:55:29.810 ,4,0,0.,12.0,0.,12.0,0.,12.0,0.,12.0
1979-07-13 18:55:41.810 ,4,0,0.,12.0,0.,12.0,0.,12.0,0.,12.0
1979-07-13 18:55:53.810 ,4,0,0.,12.0,0.,12.0,0.,12.0,0.,12.0
1979-07-13 18:56:05.810 ,3,0,0.,12.0,0.,12.0,0.,12.0,0.,12.0
1979-07-13 18:56:17.810 ,3,0,0.,12.0,0.,12.0,0.,12.0,0.,12.0
1979-07-13 18:56:29.810 ,3,0,0.,12.0,0.,12.0,0.,12.0,0.,12.0
1979-07-13 18:56:41.810 ,3,0,0.,12.0,0.,12.0,0.,12.0,0.,12.0
1979-07-13 18:56:53.810 ,2,0,0.,12.0,0.,12.0,0.,12.0,0.,12.0
1979-07-13 18:57:05.810 ,2,0,0.,12.0,0.,12.0,0.,12.0,0.,12.0
1979-07-13 18:57:17.810 ,2,0,0.,12.0,0.,12.0,0.,12.0,0.,12.0
1979-07-13 18:57:29.810 ,2,0,0.,12.0,0.,12.0,0.,12.0,0.,12.0
1979-07-13 18:57:41.810 ,1,0,0.,12.0,0.,12.0,0.,12.0,0.,12.0
1979-07-13 18:57:53.810 ,1,0,0.,12.0,0.,12.0,0.,12.0,0.,12.0
1979-07-13 18:58:05.810 ,1,0,0.,12.0,0.,12.0,0.,12.0,0.,12.0
1979-07-13 18:58:17.810 ,1,0,0.,12.0,0.,12.0,0.,12.0,0.,12.0
1979-07-13 18:58:29.810 ,0,0,0.,12.0,0.,12.0,0.,12.0,0.,12.0
1979-07-13 18:58:41.810 ,0,0,0.,12.0,0.,12.0,0.,12.0,0.,12.0
1979-07-13 18:58:53.810 ,0,0,0.,12.0,0.,12.0,0.,12.0,0.,12.0
1979-07-13 18:59:05.810 ,0,0,0.,12.0,0.,12.0,0.,12.0,0.,12.0
1979-07-13 18:59:17.810 ,0,0,0.,12.0,0.,12.0,0.,12.0,0.,12.0
1979-07-13 18:59:29.810 ,0,0,0.,12.0,0.,12.0,0.,12.0,0.,12.0
1979-07-13 18:59:41.810 ,0,0,0.,12.0,0.,12.0,0.,12.0,0.,12.0
1979-07-13 18:59:53.810 ,0,0,0.,12.0,0.,12.0,0.,12.0,0.,12.0
1979-07-13 19:00:05.810 ,1,0,1.,12.0,0.,12.0,0.,12.0,0.,12.0
1979-07-13 19:00:17.810 ,1,0,0.,12.0,0.,12.0,0.,12.0,0.,12.0
1979-07-13 19:00:29.820 ,1,0,0.,12.0,0.,12.0,0.,12.0,0.,12.0
1979-07-13 19:00:41.820 ,1,0,0.,12.0,0.,12.0,0.,12.0,0.,12.0
1979-07-13 19:00:53.820 ,2,0,1.,12.0,0.,12.0,0.,12.0,0.,12.0
1979-07-13 19:01:05.820 ,2,0,0.,12.0,0.,12.0,0.,12.0,0.,12.0
1979-07-13 19:01:17.820 ,2,0,0.,12.0,0.,12.0,0.,12.0,0.,12.0
1979-07-13 19:01:29.820 ,2,0,0.,12.0,0.,12.0,0.,12.0,0.,12.0
1979-07-13 19:01:41.820 ,3,0,0.,12.0,0.,12.0,0.,12.0,0.,12.0
1979-07-13 19:01:53.820 ,3,0,0.,12.0,0.,12.0,0.,12.0,0.,12.0
1979-07-13 19:02:05.820 ,3,0,0.,12.0,0.,12.0,0.,12.0,0.,12.0
1979-07-13 19:02:17.820 ,3,0,2.,12.0,0.,12.0,0.,12.0,0.,12.0
1979-07-13 19:02:29.820 ,4,0,0.,12.0,0.,12.0,0.,12.0,0.,12.0
1979-07-13 19:02:41.820 ,4,0,0.,12.0,0.,12.0,0.,12.0,0.,12.0
1979-07-13 19:02:53.820 ,4,0,0.,12.0,0.,12.0,0.,12.0,0.,12.0
1979-07-13 19:03:05.820 ,4,0,0.,12.0,0.,12.0,0.,12.0,0.,12.0
1979-07-13 19:03:17.820 ,5,0,0.,12.0,0.,12.0,0.,12.0,0.,12.0
1979-07-13 19:03:29.820 ,5,0,0.,12.0,0.,12.0,0.,12.0,0.,12.0
1979-07-13 19:03:41.820 ,5,0,0.,12.0,0.,12.0,0.,12.0,0.,12.0
1979-07-13 19:03:53.820 ,5,0,0.,12.0,0.,12.0,0.,12.0,0.,12.0
1979-07-13 19:04:05.820 ,6,0,0.,12.0,0.,12.0,0.,12.0,0.,12.0
1979-07-13 19:04:17.820 ,6,0,0.,12.0,0.,12.0,0.,12.0,0.,12.0
1979-07-13 19:04:29.820 ,6,0,0.,12.0,0.,12.0,0.,12.0,0.,12.0
1979-07-13 19:04:41.820 ,6,0,0.,12.0,0.,12.0,0.,12.0,0.,12.0
1979-07-13 19:04:53.820 ,7,0,1.,12.0,0.,12.0,0.,12.0,0.,12.0
1979-07-13 19:05:05.820 ,7,0,0.,12.0,0.,12.0,0.,12.0,0.,12.0
1979-07-13 19:05:17.820 ,7,0,0.,12.0,0.,12.0,0.,12.0,0.,12.0
1979-07-13 19:05:29.820 ,7,0,0.,12.0,0.,12.0,0.,12.0,0.,12.0
1979-07-13 19:05:41.810 ,7,0,0.,12.0,0.,12.0,0.,12.0,0.,12.0
1979-07-13 19:05:53.810 ,7,0,0.,12.0,0.,12.0,0.,12.0,0.,12.0
1979-07-13 19:06:05.810 ,7,0,0.,12.0,0.,12.0,0.,12.0,0.,12.0
1979-07-13 19:06:17.810 ,7,0,0.,12.0,0.,12.0,0.,12.0,0.,12.0
1979-07-13 19:06:29.810 ,6,0,0.,12.0,0.,12.0,0.,12.0,0.,12.0
1979-07-13 19:06:41.810 ,6,0,0.,12.0,0.,12.0,0.,12.0,0.,12.0
1979-07-13 19:06:53.810 ,6,0,0.,12.0,0.,12.0,0.,12.0,0.,12.0
1979-07-13 19:07:05.810 ,6,0,0.,12.0,0.,12.0,0.,12.0,0.,12.0
1979-07-13 19:07:17.810 ,5,0,0.,12.0,0.,12.0,0.,12.0,0.,12.0
1979-07-13 19:07:29.810 ,5,0,0.,12.0,0.,12.0,0.,12.0,0.,12.0
1979-07-13 19:07:41.810 ,5,0,0.,12.0,0.,12.0,0.,12.0,0.,12.0
1979-07-13 19:07:53.810 ,5,0,0.,12.0,0.,12.0,0.,12.0,0.,12.0
1979-07-13 19:08:05.810 ,4,0,0.,12.0,0.,12.0,0.,12.0,0.,12.0
1979-07-13 19:08:17.810 ,4,0,0.,12.0,0.,12.0,0.,12.0,0.,12.0
1979-07-13 19:08:29.810 ,4,0,0.,12.0,0.,12.0,0.,12.0,0.,12.0
1979-07-13 19:08:41.810 ,4,0,0.,12.0,0.,12.0,0.,12.0,0.,12.0
1979-07-13 19:08:53.810 ,3,0,0.,12.0,0.,12.0,0.,12.0,0.,12.0
1979-07-13 19:09:05.810 ,3,0,0.,12.0,0.,12.0,0.,12.0,0.,12.0
1979-07-13 19:09:17.810 ,3,0,0.,12.0,0.,12.0,0.,12.0,0.,12.0
1979-07-13 19:09:29.810 ,3,0,0.,12.0,0.,12.0,0.,12.0,0.,12.0
1979-07-13 19:09:41.810 ,2,0,0.,12.0,0.,12.0,0.,12.0,0.,12.0
1979-07-13 19:09:53.810 ,2,0,0.,12.0,0.,12.0,0.,12.0,0.,12.0
1979-07-13 19:10:05.810 ,2,0,0.,12.0,0.,12.0,0.,12.0,0.,12.0
1979-07-13 19:10:17.810 ,2,0,0.,12.0,0.,12.0,0.,12.0,0.,12.0
1979-07-13 19:10:29.810 ,1,0,0.,12.0,0.,12.0,0.,12.0,0.,12.0
1979-07-13 19:10:41.810 ,1,0,0.,12.0,0.,12.0,0.,12.0,0.,12.0
1979-07-13 19:10:53.810 ,1,0,0.,12.0,0.,12.0,0.,12.0,0.,12.0
1979-07-13 19:11:05.810 ,1,0,0.,12.0,0.,12.0,0.,12.0,0.,12.0
1979-07-13 19:11:17.810 ,0,0,0.,12.0,0.,12.0,0.,12.0,0.,12.0
1979-07-13 19:11:29.810 ,0,0,0.,12.0,0.,12.0,0.,12.0,0.,12.0
1979-07-13 19:11:41.810 ,0,0,0.,12.0,0.,12.0,0.,12.0,0.,12.0
1979-07-13 19:11:53.810 ,0,0,0.,12.0,0.,12.0,0.,12.0,0.,12.0
1979-07-13 19:12:05.810 ,0,0,0.,12.0,0.,12.0,0.,12.0,0.,12.0
1979-07-13 19:12:17.810 ,0,0,0.,12.0,0.,12.0,0.,12.0,0.,12.0
1979-07-13 19:12:29.810 ,0,0,0.,12.0,0.,12.0,0.,12.0,0.,12.0
1979-07-13 19:12:41.810 ,0,0,0.,12.0,0.,12.0,0.,12.0,0.,12.0
1979-07-13 19:12:53.810 ,1,0,0.,12.0,0.,12.0,0.,12.0,0.,12.0
1979-07-13 19:13:05.810 ,1,0,0.,12.0,1.,12.0,0.,12.0,0.,12.0
1979-07-13 19:13:17.810 ,1,0,0.,12.0,0.,12.0,0.,12.0,0.,12.0
1979-07-13 19:13:29.810 ,1,0,0.,12.0,0.,12.0,0.,12.0,0.,12.0
1979-07-13 19:13:41.810 ,2,0,0.,12.0,0.,12.0,0.,12.0,0.,12.0
1979-07-13 19:13:53.810 ,2,0,0.,12.0,0.,12.0,0.,12.0,0.,12.0
1979-07-13 19:14:05.810 ,2,0,0.,12.0,0.,12.0,0.,12.0,0.,12.0
1979-07-13 19:14:17.810 ,2,0,0.,12.0,0.,12.0,0.,12.0,0.,12.0
1979-07-13 19:14:29.810 ,3,0,0.,12.0,0.,12.0,0.,12.0,0.,12.0
1979-07-13 19:14:41.810 ,3,0,0.,12.0,0.,12.0,0.,12.0,0.,12.0
1979-07-13 19:14:53.810 ,3,0,0.,12.0,0.,12.0,0.,12.0,0.,12.0
1979-07-13 19:15:05.810 ,3,0,0.,12.0,0.,12.0,0.,12.0,0.,12.0
1979-07-13 19:15:17.810 ,4,0,0.,12.0,0.,12.0,0.,12.0,0.,12.0
1979-07-13 19:15:29.810 ,4,0,1.,12.0,0.,12.0,0.,12.0,0.,12.0
1979-07-13 19:15:41.810 ,4,0,0.,12.0,0.,12.0,0.,12.0,0.,12.0
1979-07-13 19:15:53.810 ,4,0,0.,12.0,0.,12.0,0.,12.0,0.,12.0
1979-07-13 19:16:05.810 ,5,0,0.,12.0,0.,12.0,0.,12.0,0.,12.0
1979-07-13 19:16:17.810 ,5,0,0.,12.0,0.,12.0,0.,12.0,0.,12.0
1979-07-13 19:16:29.810 ,5,0,0.,12.0,0.,12.0,0.,12.0,0.,12.0
1979-07-13 19:16:41.810 ,5,0,0.,12.0,0.,12.0,0.,12.0,0.,12.0
1979-07-13 19:16:53.810 ,6,0,0.,12.0,0.,12.0,0.,12.0,0.,12.0
1979-07-13 19:17:05.810 ,6,0,0.,12.0,0.,12.0,0.,12.0,0.,12.0
1979-07-13 19:17:17.810 ,6,0,0.,12.0,0.,12.0,0.,12.0,0.,12.0
1979-07-13 19:17:29.810 ,6,0,0.,12.0,0.,12.0,0.,12.0,0.,12.0
1979-07-13 19:17:41.810 ,7,0,0.,12.0,0.,12.0,0.,12.0,0.,12.0
1979-07-13 19:17:53.810 ,7,0,0.,12.0,0.,12.0,0.,12.0,0.,12.0
1979-07-13 19:18:05.810 ,7,0,0.,12.0,0.,12.0,0.,12.0,0.,12.0